Back to catalog

STARLINK-37388

AliveCommunicationsSSO
NORAD 68860·PAYLOAD·🇺🇸 United States

Launched Apr 26, 2026 from Vandenberg Space Force Base

Loading…

Next Passes (next 24 hours)

TLE

FreshSource: CelesTrak SupGP

Epoch: Sep 14, 2026, 22:58 UTC

1 68860C 26094X   26257.95743056  .00042271  00000+0  13122-2 0  2573
2 68860  97.2839 271.2247 0001619  86.8542 234.9766 15.33416731    15

Track STARLINK-37388 in real time with AllMySat

Download on the App Store